This demonstration page uses our WeatherBlox Daily Observations layout. Learn more.

39.29038, -76.61219

Hourly Observations for November 26, 2019

Temp ( °F °C ) Dew Point ( °F °C ) Humidity (%) Winds ( mph kmh ) Pressure ( in mb ) Visibility ( mi km ) Precip ( " mm )
12:54 am 00:54 undefined 43 6.1 37 2.8 80 80 undefined N/A 29.93 1014 N/A 0 0
1:54 am 01:54 undefined 42 5.6 37 2.8 82 82 undefined N/A 29.94 1014 N/A 0 0
2:54 am 02:54 undefined 42 5.6 37 2.8 82 82 undefined N/A 29.95 1014 N/A 0 0
3:54 am 03:54 undefined 41 5 36 2.2 82 82 undefined N/A 29.95 1014 N/A 0 0
4:54 am 04:54 undefined 40 4.4 35 1.7 83 83 undefined N/A 29.96 1015 N/A 0 0
5:54 am 05:54 undefined 40 4.4 35 1.7 83 83 undefined N/A 29.98 1015 N/A 0 0
6:54 am 06:54 undefined 40 4.4 35 1.7 83 83 undefined N/A 30 1016 N/A 0 0
7:54 am 07:54 undefined 41 5 38 3.3 89 89 undefined N/A 30.02 1017 N/A 0 0
8:54 am 08:54 undefined 46 7.8 38 3.3 73 73 undefined N/A 30.04 1017 N/A 0 0
9:54 am 09:54 undefined 51 10.6 39 3.9 64 64 undefined N/A 30.05 1018 N/A 0 0
10:54 am 10:54 undefined 53 11.7 39 3.9 59 59 undefined N/A 30.04 1017 N/A 0 0
11:54 am 11:54 undefined 56 13.3 40 4.4 55 55 undefined N/A 30.03 1017 N/A 0 0
12:54 pm 12:54 undefined 58 14.4 40 4.4 51 51 undefined N/A 30.01 1016 N/A 0 0
1:54 pm 13:54 undefined 59 15 41 5 51 51 undefined N/A 30.01 1016 N/A 0 0
2:54 pm 14:54 undefined 57 13.9 42 5.6 58 58 undefined N/A 30.01 1016 N/A 0 0
3:54 pm 15:54 undefined 57 13.9 42 5.6 58 58 undefined N/A 30.02 1017 N/A 0 0
4:54 pm 16:54 undefined 55 12.8 42 5.6 62 62 undefined N/A 30.02 1017 N/A 0 0
5:54 pm 17:54 undefined 55 12.8 42 5.6 62 62 undefined N/A 30.04 1017 N/A 0 0
6:54 pm 18:54 undefined 54 12.2 42 5.6 64 64 undefined N/A 30.04 1017 N/A 0 0
7:54 pm 19:54 undefined 54 12.2 43 6.1 67 67 undefined N/A 30.05 1018 N/A 0 0
8:54 pm 20:54 undefined 52 11.1 43 6.1 72 72 undefined N/A 30.04 1017 N/A 0 0
9:54 pm 21:54 undefined 51 10.6 43 6.1 74 74 undefined N/A 30.04 1017 N/A 0 0
10:54 pm 22:54 undefined 49 9.4 42 5.6 77 77 undefined N/A 30.04 1017 N/A 0 0
11:54 pm 23:54 undefined 49 9.4 43 6.1 80 80 undefined N/A 30.03 1017 N/A 0 0

Powered by AerisWeather